Showing default

KINEIS-4A, 63303

Orbit data source: Space-Track

KINEIS-4A, 63303 is a French payload satellite in SSO that was launched on Tue, 18 Mar 2025 UTC via an ELECTRON launch vehicle from the Rocket Lab Launch Complex (RLLC). Payload-class satellites include a variety of spacecraft equipped with specific instruments for various scientific and technological missions. These include communications satellites like Starlink; space stations such as the ISS; scientific satellites like the Hubble; Earth observation satellites from companies like Planet Labs, Umbra, and HawkEye 360; GPS; miniature CubeSats for education and research; and military/defense satellites.

Loading next visibility...
Identifier
63303, 2025-056D
Orbit
SSO
Last TLE update
6 hours ago
Origin
Manufacturer
KINEIS
Mission
Operational Commercial Communications
Bus & Motor
CUBESAT 16U, Unknown motor
Mass
28 kg wet, 28 kg dry
Launch date (UTC)
2025-03-18 (3 months ago)
Launch vehicle
ELECTRON
Launch site
Rocket Lab Launch Complex (RLLC)
Object type
Payload
Rocket body
Debris
Shape & HBR
Box + 2 Pan + 1 Ant, 1.6 m
Radar Cross Section
0.229 m², Medium (>0.1 m² and < 1m²)

Expand to show TLE details & history

TLE from 6 hours ago
0 KINEIS-4A
1 63303U 25056D   25182.14566475  .00001396  00000-0  22839-3 0  9995
2 63303  97.9841 307.6546 0002195  13.4816 346.6450 14.72337272 15479
Epoch: 2025-07-01T03:29Z
TLE epoch observation values (Epoch: 2025-07-01T03:29:45.434Z)
Latitude
0.00001°
Longitude
-24.23003°
Altitude
655.123 km
Speed
7.531 km/s
True Right ascension
20h 30m 37s
True Declination
0° 00' 00"
Sunlit
Object was in full shadow at epoch
Visualization orbit readout
Latitude
-42.57451°
Longitude
148.648°
Altitude
671.33 km
Speed
7.519 km/s
Apparent Right ascension
08h 31m 15s
Apparent Declination
-41° 22' 30"
Sunlit
Object is in daylight
Visualization observer readout
Local Sidereal Time
21:02:09
Azimuth
106.469° ESE
Elevation
-83.96°
Doppler factor
1
Orbital elements
Apogee altitude
652.214 km
Perigee altitude
649.129 km
Semi-major axis
7,028.808 km
Eccentricity
0.00022
Inclination
97.9841°
RAAN
307.6546°
Arg. of periapsis
13.4816°
True anomaly
Unknown
Mean anomaly
346.645°
Eccentric anomaly
Unknown
Mean motion
3.68316 °/min
Orbital period
97.74 mins
BSTAR
0.00022839
Loading maneuver chart data...
Loading SW <> Apogee altitude chart data...
Loading historical data...
Loading historical data...
Loading historical data...
Loading historical data...
Loading historical data...
Loading historical data...
Loading historical data...

KINEIS-4A Visibility forecast

Observer location: undefined°, undefined°

Span
Click to sort rows by Start time (UTC) header in descending order
Start Az.
Max El. time (UTC)
Max El. Az.
Max El.
End time (UTC)
End Az.
6 mins2025-07-01 20:23:53.179Z48.059° ENE2025-07-01 20:26:53.179Z97.969° ESE21.806°2025-07-01 20:29:53.179Z144.666° SSE
6 mins2025-07-01 22:00:53.179Z340.805° N2025-07-01 22:03:53.179Z280.372° WNW26.721°2025-07-01 22:06:53.179Z232.908° WSW
4 mins2025-07-02 07:23:53.179Z92.762° ESE2025-07-02 07:24:53.179Z75.618° E19.105°2025-07-02 07:27:53.179Z26.633° NE
7 mins2025-07-02 08:58:53.179Z202.714° SW2025-07-02 09:01:53.179Z262.28° W30.552°2025-07-02 09:05:53.179Z328.949° NNW
|